RH
2 1 1 2 2 3 4 4 4 3 2 1 1 1 1 1 1 2 2 2 2 2 2 2 2 2 3 3 3 3 3 3 3 2 2 2 2 2 2 2 2 2 2 2 2 2 2 2 2 2 1 2 2 2 2 2 2 2 2 2 2 2 2 19 36 48 54 54 53 51 51 56 60 62 63 62 64 69 79 78 79 81 84 89 91 91 90 87 85 84 84 85 87 89 90 91 92 93 93 94 94 95 96
1 1 1 1 1 1 2 2 2 1 1 1 1 1 1 1 2 2 2 2 2 2 3 3 3 3 3 3 3 3 3 3 3 3 3 3 2 2 2 2 2 2 2 2 2 2 2 2 2 2 2 2 2 2 2 2 2 2 2 2 2 2 3 15 31 46 54 52 49 47 50 50 52 54 55 53 53 57 65 66 68 72 76 83 87 89 89 87 85 84 84 85 86 88 89 90 90 90 91 90 91 92 93
2 2 1 1 1 1 1 1 1 1 1 1 1 1 1 1 2 2 2 2 2 3 3 3 3 3 3 3 3 3 3 3 3 3 3 3 3 3 3 3 3 3 3 2 2 2 2 2 2 2 2 2 2 2 2 2 2 2 2 2 2 2 5 11 25 40 52 52 49 46 48 46 46 47 48 45 45 48 51 55 58 61 66 74 82 87 89 88 88 89 88 88 88 89 89 90 90 90 90 89 89 89 91
2 2 2 2 1 1 1 1 1 1 1 1 1 1 1 1 2 2 3 3 3 3 3 3 3 3 3 3 3 3 3 3 3 3 3 3 3 3 3 3 3 3 3 3 3 2 2 2 2 2 2 2 2 2 2 2 2 2 2 2 2 3 6 9 17 28 44 50 49 47 47 45 43 43 42 39 40 42 42 44 47 50 55 62 70 76 81 84 86 88 89 90 91 92 92 92 91 90 88 90 91 91 91
3 3 3 2 2 2 1 1 1 1 1 1 1 1 1 1 2 2 3 3 3 3 3 3 3 3 3 3 3 3 3 3 3 3 3 3 3 3 3 3 3 3 3 3 3 3 3 3 2 2 2 2 2 2 2 2 2 2 2 2 2 2 4 6 10 17 28 41 47 48 46 45 43 41 39 37 37 36 35 35 36 38 42 49 55 61 66 70 74 78 80 85 88 92 94 95 95 95 94 94 94 94 94
3 3 3 3 3 2 2 1 1 1 1 1 1 1 1 1 2 2 3 3 3 3 3 3 3 3 3 3 3 3 3 3 3 3 3 3 3 3 3 3 3 3 3 3 3 3 3 3 3 3 2 2 2 2 2 2 2 2 2 2 2 2 2 4 6 9 16 27 38 44 44 42 41 40 38 37 35 33 29 27 26 27 29 34 40 46 51 55 58 60 63 69 76 83 90 94 96 96 96 97 96 95 96
4 4 3 3 3 3 2 2 1 1 1 1 1 1 1 1 2 2 3 3 3 3 3 3 3 3 3 3 3 3 3 3 3 3 3 3 3 3 3 3 4 4 4 4 3 3 3 3 3 3 3 3 3 3 3 2 2 2 2 3 2 2 2 3 4 6 11 18 28 38 42 41 40 40 40 38 36 32 27 24 21 20 21 22 26 32 37 40 41 42 42 49 57 65 75 85 92 96 97 97 97 97 97
5 4 4 4 3 3 3 2 2 2 1 1 1 1 1 2 2 3 3 3 3 3 3 3 3 3 3 3 3 3 3 3 3 3 3 3 3 3 3 4 4 4 4 4 4 4 4 3 3 3 3 3 3 3 3 3 3 3 2 3 3 2 2 2 3 4 10 15 23 33 43 43 44 45 48 49 46 41 33 26 22 19 18 18 19 23 26 28 29 28 28 32 39 47 56 67 78 87 94 96 97 98 98
6 5 5 4 4 4 3 3 3 2 2 1 1 1 1 2 3 3 3 3 3 3 3 3 3 3 3 3 3 3 3 3 3 3 3 3 3 3 3 3 4 4 4 4 4 4 4 4 4 3 3 3 3 3 3 3 3 3 3 3 3 2 2 2 2 4 8 13 20 29 40 46 49 52 58 67 69 65 55 43 33 25 20 19 19 20 22 22 22 21 20 21 25 32 41 51 61 71 81 89 94 97 98
8 7 6 6 5 5 4 4 3 3 2 2 2 2 2 3 3 3 3 3 3 3 3 3 3 3 3 3 3 3 3 3 3 3 3 3 3 3 3 3 3 4 4 4 4 4 4 4 4 4 3 3 3 3 3 3 3 3 3 3 3 3 2 2 2 3 4 10 16 23 32 42 48 53 60 76 87 91 84 70 57 44 34 32 29 27 25 23 19 16 15 15 17 22 28 38 47 55 64 73 82 90 94
10 9 8 7 6 6 5 5 4 4 3 3 3 3 3 3 3 3 3 3 3 3 3 3 3 3 3 3 3 3 3 3 3 3 3 3 3 3 3 3 3 3 4 4 4 4 4 4 4 4 4 3 3 3 3 3 3 3 3 3 3 3 3 2 2 2 2 5 8 14 22 32 41 48 54 67 82 94 96 90 80 67 51 52 51 47 43 35 27 20 14 13 13 16 20 29 36 43 50 58 66 74 84
13 11 10 9 8 7 6 6 5 4 4 4 3 3 3 3 3 3 3 3 3 3 3 3 3 3 3 3 3 3 3 3 3 3 3 3 3 3 3 3 3 3 4 4 4 4 4 4 4 4 4 4 3 3 3 3 3 3 3 3 3 3 3 2 2 2 2 2 3 5 10 20 31 40 46 56 71 86 95 95 90 79 65 63 68 73 70 58 47 37 25 19 17 17 20 25 30 35 41 46 52 61 71
16 14 12 11 9 8 7 7 6 5 5 4 4 4 3 3 3 3 3 3 3 3 3 3 3 3 3 3 3 3 3 3 3 3 3 3 3 3 3 3 3 3 3 3 4 4 4 4 4 4 4 4 3 3 3 3 3 3 3 3 3 3 3 3 2 2 2 2 2 2 3 10 20 30 36 43 56 71 90 94 93 87 79 70 75 84 89 85 73 59 46 36 30 27 29 32 35 38 41 42 46 52 58
19 18 16 13 12 10 9 8 7 6 6 5 5 4 4 3 3 3 3 3 3 3 4 4 4 4 4 4 3 3 3 3 3 3 3 3 3 3 3 3 3 3 3 3 4 4 4 4 4 4 4 4 4 4 4 3 3 3 3 3 3 3 3 3 3 3 2 2 2 2 2 4 10 19 26 32 42 56 76 89 94 92 85 75 78 87 97 95 89 79 70 58 51 48 50 50 51 53 54 52 52 54 57
22 20 18 16 14 12 11 10 9 8 7 6 6 5 4 4 4 4 4 4 4 4 4 4 4 4 4 4 4 4 3 3 3 3 3 3 3 3 3 3 3 3 3 3 3 4 4 4 4 4 4 4 4 4 4 4 4 3 3 3 3 3 3 3 3 3 3 2 2 2 2 2 5 10 17 22 29 40 54 77 89 93 88 80 81 87 97 97 94 90 86 77 69 66 73 72 73 74 73 73 72 70 68
24 23 21 19 17 15 14 12 10 9 8 8 7 6 6 5 5 4 4 4 4 4 4 4 4 4 4 4 4 4 4 3 3 3 3 3 3 3 3 3 3 3 3 3 3 3 4 4 4 4 4 4 4 4 4 4 4 4 4 4 4 3 3 3 3 3 3 3 2 2 2 2 3 5 10 15 22 30 40 63 82 92 86 83 84 89 97 97 96 94 88 82 76 75 83 85 87 88 86 91 92 91 87
26 26 24 22 20 18 16 14 13 11 10 10 9 8 7 7 6 5 5 4 4 4 4 4 4 4 4 4 4 4 4 4 3 3 3 3 3 3 3 3 3 3 3 3 3 3 3 4 4 4 4 4 4 4 4 4 4 4 4 4 4 4 4 3 3 3 4 3 3 2 2 2 2 3 5 11 18 27 36 52 75 91 89 86 88 93 97 97 97 95 87 78 76 80 89 92 91 89 89 96 99 99 99
28 27 26 25 23 21 19 17 15 14 13 12 11 10 10 9 8 7 6 5 5 5 4 4 4 4 4 4 4 4 4 4 4 3 3 3 3 3 3 3 3 3 3 3 3 3 3 4 4 4 4 4 4 4 4 4 4 4 4 4 4 4 4 4 4 4 4 4 3 3 2 2 2 3 3 8 16 27 41 48 68 88 94 93 94 96 97 97 98 96 90 82 81 85 95 96 94 93 93 98 99 100 100
29 29 28 27 26 24 22 20 18 17 16 15 14 13 12 11 10 9 8 7 6 6 5 5 5 4 4 4 4 4 4 4 4 4 3 3 3 3 3 3 3 3 3 3 3 3 3 4 4 4 4 4 5 5 5 5 5 4 4 4 4 4 4 4 4 4 4 4 4 3 3 2 2 3 3 5 11 24 42 47 60 76 94 95 96 96 97 97 98 97 94 88 86 89 98 98 99 99 99 99 99 100 100
30 30 29 29 27 26 25 23 21 20 19 18 17 16 15 14 12 11 10 9 8 7 6 6 5 5 5 5 5 5 5 4 4 4 4 4 3 3 3 3 3 3 3 3 3 3 3 4 4 4 4 4 5 5 5 5 5 5 5 5 4 4 4 4 4 4 4 4 4 4 3 3 3 3 3 3 7 16 32 48 56 64 81 91 95 96 97 97 98 98 98 93 93 96 99 99 99 99 98 99 99 99 99
30 30 30 30 29 28 27 25 24 23 22 21 20 19 18 17 15 14 13 11 10 9 8 7 7 6 5 5 5 5 5 5 5 5 4 4 4 4 3 3 3 3 3 3 3 3 3 4 4 4 4 4 5 5 5 5 5 5 5 5 5 5 4 4 4 4 4 4 4 4 4 3 3 3 3 3 4 8 18 40 53 60 63 74 85 94 97 98 98 98 98 97 97 98 99 99 99 99 99 99 99 99 99
30 31 31 30 30 30 29 28 26 25 24 24 23 22 21 19 18 17 15 14 13 11 10 9 8 7 7 6 6 6 5 5 5 5 5 5 4 4 4 4 3 3 3 3 3 3 3 3 4 4 4 4 5 5 5 5 5 5 6 5 5 5 5 4 4 4 4 4 4 4 4 4 3 3 3 3 3 4 9 27 45 56 52 55 65 78 93 97 98 98 98 98 98 98 99 99 99 98 98 99 99 99 100
30 30 31 31 31 31 30 29 28 27 26 26 25 24 23 22 21 19 18 17 15 14 13 11 10 9 8 7 7 6 6 5 5 6 5 5 5 5 4 4 4 4 3 3 3 3 3 3 3 4 4 4 4 5 5 5 5 6 6 6 6 5 5 5 5 4 4 4 4 4 4 4 4 3 3 3 3 3 4 17 32 43 47 54 55 58 71 84 93 97 98 98 98 98 98 99 99 98 97 98 98 99 100
29 30 31 31 31 31 31 31 30 29 28 28 27 26 25 24 23 22 21 19 18 17 15 14 12 10 9 8 7 7 6 6 6 6 6 6 5 5 5 4 4 4 4 4 3 3 3 3 3 3 4 4 4 5 5 5 5 6 6 6 6 6 5 5 5 5 5 5 4 4 4 4 4 4 3 3 3 3 3 9 24 39 47 61 59 53 53 60 70 81 90 88 88 91 96 98 99 98 98 97 97 98 100
27 28 30 31 31 32 32 32 31 30 30 30 29 28 27 26 25 24 23 21 20 19 18 16 14 12 10 9 8 8 7 7 6 6 6 6 6 5 5 5 5 4 4 4 4 3 3 3 3 3 4 4 4 4 5 5 5 6 6 6 6 6 6 5 5 5 5 5 5 5 5 4 4 4 3 3 3 3 3 5 13 26 42 52 59 58 47 45 56 68 72 72 80 89 89 95 98 98 98 96 96 97 99
26 27 28 30 31 32 32 32 32 32 31 31 30 30 28 28 27 26 25 24 22 21 20 18 16 15 13 11 10 9 9 8 7 7 6 6 6 6 5 5 5 5 4 4 4 4 3 3 3 3 3 4 4 4 4 5 5 5 6 6 6 6 6 6 6 5 5 5 5 5 5 5 5 4 4 4 3 3 3 3 7 16 30 43 51 53 43 46 50 54 58 60 65 71 78 90 96 99 98 97 96 97 98
26 27 28 29 30 31 32 32 33 33 32 32 32 31 30 29 29 28 27 26 25 23 22 20 19 18 16 15 13 12 11 10 9 8 7 6 6 6 6 5 5 5 5 4 4 4 4 3 3 3 3 3 4 4 4 5 5 5 6 6 6 6 6 6 6 6 6 5 5 5 5 5 5 5 5 5 4 4 3 3 4 9 18 27 32 35 37 50 50 47 48 51 57 65 71 81 91 98 98 97 96 95 96
26 26 27 28 29 30 31 32 32 33 33 33 33 32 31 30 30 30 29 28 27 26 24 23 22 21 19 18 16 15 14 12 11 10 8 7 6 6 6 6 6 5 5 5 4 4 4 4 3 3 3 3 3 4 4 4 5 5 6 6 6 7 7 7 7 6 6 6 5 5 5 5 5 5 5 5 5 4 4 4 4 5 7 11 15 22 32 37 41 44 48 50 52 57 67 76 88 97 97 98 97 97 95
26 26 27 28 28 29 30 31 32 33 33 34 33 33 32 32 31 31 30 30 29 28 27 26 25 23 22 21 19 17 16 14 13 12 10 9 8 7 7 6 6 6 5 5 5 4 4 4 4 4 3 3 3 3 4 4 4 5 5 6 6 7 7 7 7 7 7 6 6 6 5 5 5 5 5 5 5 5 4 5 5 5 5 6 7 11 20 25 35 45 50 57 63 66 63 75 87 96 98 98 97 96 96
26 26 27 27 28 29 29 30 31 32 33 34 34 33 33 33 32 32 31 31 31 30 29 28 27 26 25 23 21 19 18 16 15 14 12 11 10 9 8 7 7 6 6 5 5 5 5 4 4 4 4 3 3 3 3 4 4 4 5 5 6 6 7 7 7 7 7 7 6 6 6 5 5 5 5 5 5 5 5 5 5 5 5 5 5 6 9 16 29 43 52 62 68 70 69 76 87 96 98 98 96 95 97
25 26 26 27 28 28 29 30 30 31 32 33 34 34 34 34 33 33 33 32 32 32 31 30 29 28 27 25 23 22 20 18 17 16 15 13 12 11 10 9 8 7 6 6 5 5 5 5 4 4 4 3 3 3 3 3 3 4 4 5 6 6 7 7 7 7 7 7 7 6 6 6 6 5 5 5 6 6 5 5 5 5 6 6 5 5 6 9 19 36 57 67 76 82 86 85 90 96 98 97 96 96 96
25 26 26 27 27 28 29 29 30 31 31 32 33 34 34 35 34 34 34 34 33 33 33 32 31 30 29 27 26 24 22 21 19 18 17 16 15 13 12 10 9 8 7 7 6 6 5 5 4 4 4 3 3 3 3 3 3 3 4 4 5 6 6 7 7 7 8 7 7 7 6 6 6 5 5 6 6 6 6 6 5 5 6 6 6 5 5 5 15 31 51 59 66 74 84 82 87 93 98 98 97 95 94
25 26 26 27 27 28 28 29 29 30 31 32 32 33 34 35 35 35 35 35 35 35 34 33 33 32 31 29 28 26 24 23 22 21 19 18 17 15 14 12 11 10 9 8 7 6 5 5 5 4 4 4 3 3 3 3 3 3 3 4 4 5 6 6 7 7 8 8 7 7 7 6 6 6 6 6 6 6 6 6 6 6 6 6 6 5 5 5 12 23 38 51 63 71 75 79 86 93 96 98 98 98 96
25 25 26 26 27 27 28 28 29 29 30 31 32 33 34 34 35 35 35 35 35 36 35 35 34 34 33 31 30 28 27 26 25 23 22 20 19 18 16 15 13 11 10 9 8 7 6 5 5 4 4 4 3 3 3 3 2 2 3 3 4 5 5 6 7 7 8 8 8 7 7 6 6 6 6 6 6 6 6 6 6 6 6 6 5 5 5 5 10 19 29 37 52 67 75 84 86 87 93 96 98 98 98
24 25 26 26 27 27 28 28 28 29 30 31 31 32 33 34 35 35 35 35 36 36 36 36 36 35 35 33 32 31 29 28 27 25 24 23 21 20 18 17 15 13 12 10 9 8 7 6 5 5 4 4 3 3 3 3 3 2 2 3 3 4 5 6 6 7 8 8 8 8 7 7 6 6 6 6 6 6 6 6 7 7 7 6 6 5 5 5 5 8 16 28 35 46 70 78 80 81 85 92 96 98 98
23 24 25 26 26 27 27 27 28 28 29 30 31 32 33 34 34 35 35 35 35 36 36 36 36 36 35 35 34 33 32 30 29 28 26 25 24 22 21 19 18 16 14 12 11 9 8 7 6 5 4 4 3 3 3 3 3 2 2 2 3 3 4 5 6 7 7 8 8 8 8 7 7 6 6 6 6 6 6 6 7 7 8 7 6 6 5 5 5 7 9 24 33 42 58 60 66 74 78 88 93 96 98
22 23 24 25 26 26 26 27 27 28 28 29 30 31 32 33 34 34 35 35 36 36 37 37 37 36 36 36 36 35 34 33 31 30 29 28 26 24 23 21 20 18 16 14 13 11 10 8 7 6 5 4 3 3 3 3 2 2 2 2 2 3 4 4 5 6 7 8 8 8 8 7 7 6 6 6 6 6 6 6 7 7 8 7 7 6 5 5 5 6 7 20 33 45 55 53 62 72 78 84 91 96 98
21 22 23 24 25 26 26 26 26 27 28 29 29 30 31 32 33 34 35 35 36 37 37 38 38 38 37 38 37 37 36 35 34 33 32 30 28 27 26 24 22 20 18 16 14 13 11 10 8 7 5 4 4 3 3 2 2 2 2 2 2 3 3 4 5 6 7 8 8 9 8 8 7 7 6 6 6 6 6 6 7 7 8 8 7 7 6 5 6 6 7 13 22 32 42 54 67 75 77 81 89 96 98
20 21 22 23 24 24 25 25 26 26 27 28 28 29 30 31 32 33 34 35 35 36 37 38 38 38 38 38 39 38 38 37 36 35 35 33 31 30 28 26 24 22 20 18 17 15 14 12 10 8 7 5 4 4 3 3 3 2 2 2 2 2 3 3 4 5 7 8 9 9 8 8 7 7 6 6 6 6 6 6 6 7 7 8 8 8 7 6 6 6 7 9 13 22 41 53 59 66 82 90 95 97 97
20 20 21 22 23 23 24 24 25 26 26 27 28 28 29 30 31 32 32 33 34 35 36 37 37 37 38 38 38 38 38 37 37 36 35 34 33 32 30 28 26 24 23 21 19 17 16 14 12 10 8 7 5 4 4 4 3 3 2 2 2 2 2 3 3 4 6 8 9 9 9 8 7 7 7 6 6 6 6 6 6 6 7 7 8 8 9 7 6 6 7 8 10 17 32 53 61 69 90 96 98 97 96
20 20 20 21 22 22 23 24 24 25 26 26 27 28 28 29 30 31 31 32 33 34 34 35 36 36 36 37 37 37 38 37 37 36 36 36 35 34 33 30 28 27 25 23 22 20 18 16 14 12 10 8 7 6 5 5 4 3 3 2 2 2 2 2 3 4 6 8 9 10 9 8 8 7 7 7 6 6 6 6 6 6 6 7 8 8 9 9 8 6 7 8 12 18 26 41 54 69 91 96 97 97 96
21 21 21 21 21 22 22 23 24 24 25 26 26 27 28 28 29 29 30 31 32 33 33 34 35 35 36 36 37 37 37 38 38 37 37 37 37 36 35 33 31 29 28 26 24 23 21 19 16 14 12 10 8 7 7 6 5 4 3 3 2 2 2 2 2 3 5 8 10 10 9 9 8 8 7 7 7 7 6 6 6 6 6 6 7 8 9 10 9 8 8 11 14 18 22 32 46 64 85 94 97 97 97
21 21 21 21 21 22 22 22 23 24 25 25 26 26 27 27 28 28 29 30 31 32 32 33 34 34 35 35 36 37 37 38 38 38 38 38 38 37 36 34 33 32 30 28 27 25 24 21 19 16 13 11 10 9 8 7 6 5 4 3 3 2 2 2 2 3 5 8 10 10 10 9 9 8 8 8 7 7 7 6 6 6 6 6 7 8 9 10 10 9 10 14 16 18 21 28 41 58 77 90 96 97 96
22 22 22 22 22 22 22 22 23 23 24 25 25 26 26 27 27 28 28 29 30 30 31 32 32 33 34 34 35 35 36 37 37 38 38 37 37 36 36 35 35 34 32 31 29 28 26 24 21 18 15 13 12 10 9 8 6 5 4 3 3 2 2 2 2 3 5 8 10 11 10 10 9 9 8 8 8 7 7 6 6 6 6 6 6 7 8 9 10 10 11 14 17 21 25 33 42 53 64 81 92 96 95
22 22 22 22 22 22 22 22 23 23 24 24 25 25 26 26 27 27 28 28 29 30 30 30 31 32 32 33 33 34 35 36 36 37 37 36 36 36 36 36 36 35 34 33 32 30 28 26 23 20 18 16 14 12 10 9 7 6 5 4 3 3 2 2 2 3 5 8 11 11 11 10 10 10 9 9 8 8 7 7 6 6 6 6 6 7 8 9 10 11 12 13 16 19 23 31 35 40 49 70 87 97 96
22 22 22 22 22 22 23 23 23 23 23 24 24 25 25 26 26 27 27 28 28 29 29 29 30 31 31 32 33 33 34 35 35 36 36 36 36 36 36 37 36 36 35 35 34 32 30 27 25 23 20 18 16 14 11 10 8 7 5 4 4 3 3 2 2 3 5 9 11 12 11 11 10 10 10 10 9 8 8 7 7 6 6 6 6 6 7 8 10 11 13 14 14 16 19 24 29 37 49 73 89 96 97
22 22 22 22 22 23 23 23 23 23 24 24 24 24 25 25 25 26 26 26 27 27 28 28 29 30 30 31 32 33 33 34 35 35 35 36 36 36 36 37 37 36 36 36 36 34 32 30 28 26 23 21 18 16 13 11 9 8 6 5 4 3 3 3 3 4 6 10 11 12 11 11 11 11 11 10 10 9 8 8 7 7 7 6 6 6 7 8 10 11 13 14 14 15 16 20 25 35 50 69 84 93 96
22 22 22 23 23 23 23 24 24 24 24 24 24 24 24 24 25 25 25 26 26 26 27 27 28 29 29 30 31 31 32 33 33 34 34 35 35 35 35 35 36 36 37 37 36 36 34 33 31 29 26 24 21 18 16 13 11 9 8 6 5 4 4 4 4 5 8 10 12 12 10 10 11 11 12 11 10 9 9 8 8 8 7 7 7 7 7 8 10 11 13 14 15 15 15 17 19 23 32 44 63 82 95
23 23 23 23 23 23 24 24 24 24 24 24 24 24 24 24 25 25 25 26 26 26 27 27 28 28 29 29 29 30 30 31 32 33 33 33 33 34 34 34 35 36 36 36 36 36 35 34 33 31 29 27 24 21 19 16 13 11 9 8 7 6 6 6 6 7 9 11 11 11 9 10 10 12 12 12 11 10 10 9 9 8 8 7 7 7 7 8 10 11 13 14 15 15 15 15 16 19 23 34 56 79 94
23 23 23 23 23 24 24 24 24 25 25 24 24 25 25 25 25 26 26 26 26 27 27 27 28 28 28 28 29 29 29 30 31 32 32 32 32 32 33 34 34 35 35 36 36 35 35 35 34 33 32 30 28 25 22 18 16 13 11 10 9 8 8 8 8 9 10 12 11 10 8 9 10 12 13 12 12 11 10 10 9 9 8 8 8 8 8 8 10 11 13 14 15 15 15 16 17 20 24 39 58 77 92
24 24 24 24 24 24 24 24 25 25 25 25 25 25 26 26 26 26 26 27 27 27 28 28 28 28 28 28 28 29 29 30 30 31 32 32 32 32 32 33 34 34 35 36 36 36 36 35 35 35 35 34 32 29 26 22 19 16 14 12 11 11 10 10 10 11 12 12 10 9 7 8 10 12 13 13 12 12 11 10 10 10 9 9 9 8 8 8 9 10 12 13 14 15 16 18 21 25 27 39 55 71 85
25 25 25 25 24 24 25 25 25 25 26 26 26 26 26 26 27 27 27 27 27 28 28 28 28 29 29 29 29 29 29 30 31 31 32 32 32 33 33 34 34 35 36 36 36 36 36 37 37 37 36 36 35 33 31 27 23 20 17 15 14 13 12 12 12 12 13 12 10 8 6 8 10 12 13 14 14 13 12 11 11 10 10 10 9 9 9 9 9 10 11 12 14 16 18 19 23 27 28 31 45 61 68
26 26 26 26 26 26 26 26 26 26 27 27 27 27 27 28 28 28 28 28 28 29 29 29 29 30 30 30 30 30 30 31 31 31 31 32 33 34 35 35 36 36 36 36 36 36 37 37 37 37 37 37 36 35 33 29 26 23 20 18 16 15 14 14 13 13 13 11 9 7 6 7 9 12 14 15 15 14 13 12 11 11 11 10 10 10 10 9 10 10 12 13 16 18 20 21 23 24 26 27 32 41 52
27 27 27 27 27 27 27 27 28 28 28 28 29 29 29 29 29 29 30 30 30 30 30 30 30 31 31 31 31 31 31 32 32 32 33 33 34 35 36 37 37 37 37 38 38 38 37 38 38 38 38 37 36 34 33 30 28 25 23 20 18 17 16 15 15 14 13 11 9 7 6 7 9 12 14 16 16 16 14 13 12 12 11 11 11 11 10 10 11 12 13 15 17 19 20 22 23 24 27 30 35 41 50
28 28 28 28 29 29 29 29 29 30 30 30 31 31 31 31 31 31 31 31 31 31 32 32 32 32 32 32 32 32 32 33 33 33 34 34 34 34 35 36 37 38 39 39 39 39 38 38 39 38 38 37 35 34 33 31 29 27 25 22 21 19 18 17 16 15 13 11 8 6 6 7 9 12 16 18 18 17 15 14 13 12 12 12 12 12 12 12 13 13 14 16 17 19 21 24 25 26 28 33 37 42 48
30 30 30 30 30 31 31 31 31 32 32 32 33 33 33 33 33 33 33 33 33 33 34 34 33 33 33 33 34 34 34 34 34 35 35 35 35 35 34 35 37 39 39 39 38 38 38 39 39 39 38 37 36 35 34 33 31 28 27 25 23 22 20 18 17 15 12 10 8 7 6 7 9 13 17 19 20 18 17 15 14 13 12 12 13 13 13 14 15 16 16 17 18 20 22 24 26 27 27 33 39 46 55
32 32 32 32 32 33 33 33 34 34 34 35 35 35 35 35 35 35 35 35 35 35 35 35 35 35 35 35 35 35 35 35 36 36 37 36 36 36 36 35 36 36 36 38 38 38 39 40 39 38 37 37 36 35 34 33 31 30 28 27 25 23 21 19 17 15 12 10 9 7 7 7 10 13 19 21 22 20 18 16 14 13 13 13 13 14 15 16 17 18 19 19 20 21 23 25 26 27 28 36 46 56 64
34 34 34 35 35 35 35 36 36 36 36 37 37 37 37 37 37 37 37 37 37 37 37 37 37 37 37 37 37 37 37 37 37 38 39 38 38 38 37 37 36 35 35 36 37 38 40 40 39 37 36 36 36 35 34 32 31 30 30 28 26 24 21 19 17 15 13 11 9 8 7 8 10 15 21 23 24 22 20 17 15 14 13 14 14 15 16 18 19 20 20 21 22 24 25 26 28 30 32 37 49 62 72
36 37 37 37 37 37 38 38 38 38 39 39 39 39 39 39 39 39 39 39 39 39 39 39 39 39 39 39 39 39 39 38 38 39 40 40 40 40 39 39 38 38 37 36 37 37 39 39 39 38 37 36 36 36 36 34 33 32 31 29 27 25 22 20 18 17 15 12 10 8 7 8 11 17 23 26 26 24 21 18 16 15 14 14 15 16 17 19 20 21 22 24 25 27 28 30 32 35 39 43 53 65 74
39 39 39 39 39 40 40 40 40 41 41 41 41 41 41 41 41 41 41 41 41 41 41 41 41 41 41 41 41 40 40 40 40 40 41 42 42 42 42 42 41 40 39 38 38 38 38 39 39 39 38 38 36 35 35 35 34 32 31 29 27 25 23 21 19 18 16 13 11 9 7 9 13 19 26 28 28 27 24 20 18 16 14 14 15 16 18 20 21 22 24 25 27 29 32 35 37 39 40 44 52 62 69
40 40 41 41 41 41 42 42 42 42 43 43 43 43 43 43 43 43 43 43 43 43 43 43 43 43 43 43 42 42 42 42 42 42 42 42 43 44 45 45 44 43 42 41 40 39 38 38 38 38 38 38 37 36 33 33 33 32 31 29 27 25 23 22 21 20 17 14 12 10 9 11 16 23 29 31 32 30 27 24 20 17 15 15 15 17 18 20 21 23 24 25 27 29 32 34 36 37 38 41 49 59 68
Wind_Speed
2 2 1 1 1 1 2 2 2 3 4 4 5 5 6 6 5 5 5 6 6 6 6 7 7 7 7 7 7 7 7 7 7 7 7 7 6 6 6 6 6 6 7 7 7 7 7 7 7 7 7 7 7 7 7 7 7 7 7 6 6 5 5 6 7 7 6 6 6 6 6 6 6 7 7 8 8 9 10 10 10 10 10 11 11 11 11 11 11 11 12 12 12 12 12 12 13 13 13 13 13 14 14
2 2 2 1 1 1 1 2 2 3 3 4 4 5 5 5 5 5 5 5 5 5 6 6 6 6 6 6 6 6 6 6 6 6 6 6 6 6 6 6 6 6 6 6 6 6 6 6 6 6 6 6 7 6 7 7 7 7 6 6 6 6 5 5 6 7 6 5 5 5 5 5 5 5 6 6 7 7 8 8 9 9 10 10 10 11 11 11 11 11 11 11 11 12 12 12 12 12 12 12 13 13 13
2 2 2 2 2 1 1 2 2 2 3 4 4 5 5 5 5 5 5 5 5 5 5 5 5 5 5 5 5 5 5 5 5 5 5 5 5 5 5 5 5 5 5 5 5 5 5 5 5 6 6 6 6 6 6 6 6 6 6 6 6 6 5 5 6 7 7 6 5 5 5 4 4 4 5 5 6 6 7 7 7 8 9 9 10 10 11 11 11 11 11 11 11 11 12 12 12 12 12 12 12 12 12
3 3 2 2 2 2 2 2 2 2 2 3 3 4 4 4 4 4 4 4 4 4 4 4 5 5 5 5 5 5 5 5 5 5 5 5 5 5 5 5 4 5 5 5 5 5 5 5 5 5 5 5 5 5 5 5 6 6 6 6 6 6 5 5 5 6 6 6 6 6 5 5 4 4 4 4 5 5 5 6 6 7 7 8 9 10 10 11 11 11 11 12 12 12 12 12 12 12 12 12 12 12 12
3 3 3 3 3 3 3 3 2 2 2 2 3 3 3 4 4 4 4 4 4 4 4 4 4 4 4 4 4 4 4 4 4 4 4 4 4 4 4 4 4 4 4 4 4 4 4 4 4 4 4 5 5 5 5 5 5 5 5 5 6 6 5 5 4 5 5 6 6 6 6 5 5 4 4 4 4 4 5 5 5 5 6 6 7 8 9 10 10 11 11 11 12 12 12 12 12 12 13 13 13 13 13
4 4 4 4 4 4 3 3 3 2 2 2 2 2 2 3 3 3 3 3 3 3 3 3 4 4 4 4 4 4 4 4 4 4 4 4 4 4 4 4 4 4 4 4 4 4 4 4 4 4 4 4 4 4 5 5 5 5 5 5 5 5 5 5 5 5 5 5 6 6 6 6 5 5 4 4 4 4 4 4 4 4 4 5 5 6 7 8 8 9 10 10 11 11 12 12 12 12 13 13 13 13 13
5 5 5 5 4 4 4 4 3 3 2 2 1 2 2 2 2 3 3 3 3 3 3 3 3 4 4 4 4 4 4 4 4 4 4 4 4 4 4 4 4 4 4 4 4 4 4 4 4 4 4 4 4 4 4 4 5 5 5 5 5 5 5 5 5 5 5 5 6 6 7 6 6 5 5 5 5 5 4 4 3 3 3 3 3 4 5 6 6 7 8 8 9 10 11 11 12 12 12 13 13 13 13
5 5 5 5 5 5 5 4 4 3 3 2 1 1 1 1 2 2 2 2 2 3 3 3 3 4 4 4 4 4 4 4 4 4 4 4 4 4 4 4 4 4 4 4 4 4 4 4 4 4 4 4 4 4 4 5 5 5 5 5 5 6 6 5 6 6 6 6 6 7 7 7 7 6 6 6 6 6 5 4 3 3 2 2 2 2 3 4 4 5 5 6 7 8 9 10 11 12 12 13 13 13 13
6 6 6 6 6 6 5 5 4 3 3 2 1 1 1 1 1 1 2 2 2 3 3 3 4 4 4 4 5 5 5 5 5 5 5 5 5 5 5 5 5 5 5 5 5 5 5 4 4 4 4 5 5 5 5 5 5 5 5 6 6 6 6 6 6 6 7 7 7 7 8 8 8 7 7 7 7 7 7 6 5 4 3 3 2 2 2 3 3 3 4 4 5 6 7 8 9 10 11 12 12 13 13
7 7 7 7 7 6 6 5 5 4 3 2 2 1 0 0 1 1 2 2 2 3 3 4 4 4 5 5 5 5 5 5 5 6 6 6 6 6 6 6 6 6 6 5 5 5 5 5 5 5 5 5 5 5 5 5 6 6 6 6 6 7 7 6 6 7 7 7 7 7 8 8 8 8 8 8 8 8 8 8 7 7 6 5 4 4 4 3 3 3 3 3 4 4 5 7 8 9 10 11 12 12 13
7 7 8 7 7 7 7 6 5 5 4 3 2 1 1 1 1 1 2 2 3 3 4 4 4 5 5 5 5 5 5 5 5 6 6 6 6 6 6 6 6 6 6 6 6 6 6 6 6 6 6 6 6 6 6 6 6 6 6 6 7 7 7 7 7 7 7 7 7 7 8 8 8 8 8 8 8 8 8 8 8 8 7 7 7 7 7 6 5 4 4 3 3 3 4 5 6 7 8 9 10 11 12
8 8 8 8 8 8 7 7 6 5 4 4 3 2 1 1 1 2 2 3 3 4 4 4 5 5 5 5 5 6 6 6 6 6 6 6 6 6 6 7 7 7 7 7 7 7 6 6 6 6 6 6 6 6 6 6 6 6 7 7 7 7 8 8 8 7 7 7 7 7 7 8 8 8 8 8 8 8 8 8 8 8 8 8 8 8 9 8 8 7 6 5 5 4 4 5 5 6 7 8 9 10 11
8 9 9 9 9 8 8 8 7 6 5 4 3 2 2 2 2 2 3 3 4 4 4 5 5 5 6 6 6 6 6 6 6 6 6 6 6 6 6 7 7 7 7 7 7 7 7 7 7 7 7 7 7 7 7 7 7 7 7 7 7 7 7 8 8 8 8 8 8 8 7 8 8 8 8 8 8 8 8 8 8 8 8 8 8 9 9 9 9 9 8 8 7 6 6 6 6 7 7 8 9 9 10
9 9 9 9 9 9 9 8 8 7 6 5 4 3 2 2 2 3 3 4 4 4 5 5 5 6 6 6 6 6 6 6 7 7 7 7 7 7 7 7 7 7 7 7 7 8 8 8 7 7 7 7 7 7 7 7 7 7 7 7 7 7 7 8 8 8 8 8 8 8 8 8 8 8 8 8 8 8 9 8 8 8 8 8 8 9 9 9 10 10 9 9 9 8 8 8 8 8 8 9 9 10 10
10 10 10 10 10 10 10 9 8 7 6 5 4 3 3 3 3 4 4 4 5 5 5 5 6 6 6 6 7 7 7 7 7 7 7 7 7 7 7 7 7 7 7 7 8 8 8 8 8 8 8 8 8 8 8 8 8 8 8 8 8 8 8 8 8 8 8 8 8 8 8 8 8 8 8 8 8 9 9 9 8 8 8 8 8 9 9 9 10 10 10 10 9 9 9 9 9 10 10 11 11 11 12
10 11 11 11 11 11 11 10 9 8 7 6 5 4 4 4 4 4 5 5 5 6 6 6 6 6 7 7 7 7 7 7 7 8 8 8 8 8 8 7 8 8 8 8 8 8 8 8 8 8 8 8 8 8 8 8 8 8 8 8 8 8 8 8 8 8 9 9 9 9 9 9 9 9 9 9 9 9 9 9 9 8 8 8 8 9 9 9 10 10 10 10 10 10 10 10 10 10 11 11 12 13 13
11 11 12 12 12 12 11 10 9 8 7 6 6 5 5 5 5 5 5 6 6 6 7 7 7 7 7 7 7 7 8 8 8 8 8 8 8 8 8 8 8 8 8 8 8 8 8 8 8 8 8 8 8 8 8 8 9 9 9 9 9 9 9 9 9 9 9 9 9 9 9 9 9 9 9 9 9 9 10 10 9 8 8 8 8 8 9 9 9 10 10 10 10 10 10 10 11 11 11 11 12 13 14
12 12 12 13 13 13 12 11 10 9 8 7 7 6 6 6 6 6 6 7 7 7 8 8 8 8 8 8 8 8 8 8 8 8 8 9 9 9 8 8 8 8 8 8 8 8 8 8 9 9 9 9 9 9 9 9 9 9 9 9 9 9 9 9 9 9 9 10 10 10 10 10 10 10 10 10 10 10 11 11 11 9 8 8 8 8 9 9 9 10 11 11 10 10 10 11 11 11 11 12 12 13 13
13 13 13 13 14 13 13 12 11 10 9 8 8 7 7 7 7 7 7 8 8 8 9 9 9 9 9 9 9 9 9 9 8 8 9 9 9 9 9 9 9 9 9 9 9 9 9 9 9 9 9 9 9 9 9 9 9 9 9 9 9 9 10 10 10 10 10 10 11 11 11 11 11 11 11 10 10 10 11 12 12 11 9 9 8 8 8 9 9 10 10 11 11 10 10 11 11 11 12 12 12 12 13
14 14 14 14 14 14 13 12 12 11 10 9 9 9 8 8 8 8 9 9 9 9 9 10 10 10 10 10 10 10 10 10 9 9 9 9 9 9 9 9 9 9 9 9 9 9 9 9 9 9 9 9 9 10 9 9 9 9 9 9 9 10 10 10 10 10 10 11 11 11 11 11 11 11 11 11 10 10 10 11 12 12 11 10 9 9 8 9 9 10 10 11 11 10 10 11 11 12 12 12 12 12 13
14 15 15 15 15 15 14 13 12 12 11 11 10 10 10 10 10 10 10 10 10 10 10 10 11 11 11 11 11 11 11 11 10 10 10 10 10 10 10 10 10 10 9 9 9 9 9 9 9 9 9 9 10 10 10 10 10 10 10 10 10 10 10 10 11 11 11 11 11 11 12 12 12 12 12 11 11 11 10 11 12 13 13 12 11 10 9 9 9 9 10 10 10 10 10 10 11 11 12 12 12 12 13
15 15 16 16 16 16 15 14 13 13 12 12 12 11 11 11 11 11 11 11 11 11 11 11 11 11 11 11 11 11 12 11 11 11 11 10 10 10 10 10 10 10 10 10 10 10 10 10 10 10 10 10 10 10 10 10 10 10 10 10 10 10 10 11 11 11 11 11 11 11 12 12 12 12 12 12 12 11 11 11 12 13 13 13 12 12 11 10 10 10 10 10 10 10 10 10 11 11 12 12 12 12 13
16 16 16 17 17 16 16 15 14 14 13 13 13 12 12 12 12 12 12 12 12 12 12 12 12 12 12 12 12 12 12 12 12 12 12 11 11 11 11 11 11 11 11 11 11 10 10 10 10 10 10 10 10 10 11 11 11 11 11 11 11 11 11 11 11 11 11 11 11 11 12 12 12 13 12 12 12 12 11 11 12 12 13 13 13 13 13 12 11 11 11 11 11 11 10 10 10 11 12 12 12 13 13
17 17 17 17 17 17 16 16 15 15 14 14 14 14 14 14 14 14 13 13 13 13 13 13 13 13 13 13 13 13 13 13 13 13 12 12 12 12 11 11 11 11 11 11 11 11 11 11 11 11 11 11 11 11 11 11 11 11 12 12 12 12 11 11 12 12 12 12 12 12 12 12 12 13 13 13 13 12 12 12 12 12 13 13 14 14 14 13 13 13 12 12 12 11 11 10 10 11 12 12 12 13 13
17 17 17 17 17 17 17 17 16 16 15 16 15 15 15 15 15 15 15 15 15 14 14 14 14 14 14 14 14 14 14 14 14 13 13 13 13 12 12 12 12 12 12 12 12 12 12 12 12 12 12 11 11 11 11 12 12 12 12 12 12 12 12 12 12 12 12 13 12 12 12 12 12 13 13 13 13 13 13 12 12 12 13 13 14 14 14 14 14 13 13 13 13 12 12 11 11 11 12 12 12 13 14
18 18 18 18 18 18 18 18 17 17 17 17 17 16 16 16 16 16 16 16 16 15 15 15 15 15 15 15 15 15 15 14 14 14 14 14 13 13 13 13 13 13 12 12 12 12 12 12 12 12 12 12 12 12 12 12 12 12 13 13 13 13 13 12 12 12 13 13 13 13 13 13 13 13 13 14 14 13 13 13 13 13 13 13 14 14 14 14 14 14 14 14 13 13 13 12 12 12 12 12 13 13 14
19 19 19 19 18 19 19 19 18 18 18 18 18 18 18 18 18 17 17 17 17 16 16 16 16 16 16 16 16 15 15 15 15 14 14 14 14 14 14 14 14 13 13 13 13 13 13 13 13 13 13 13 13 13 12 13 13 13 13 13 13 13 13 13 13 13 13 13 13 13 13 13 13 13 13 14 14 14 14 14 13 13 13 13 14 14 15 15 15 15 15 14 14 14 13 13 13 12 12 13 13 13 14
20 20 20 20 20 20 20 20 19 19 18 19 19 19 19 19 19 19 18 18 18 18 18 17 17 17 17 17 16 16 16 16 15 15 15 15 15 15 15 15 15 14 14 14 14 14 14 14 14 14 14 14 13 13 13 13 13 13 13 13 14 14 14 14 13 13 13 13 14 14 14 14 13 13 13 14 14 14 14 14 14 14 14 14 14 14 15 15 15 15 16 15 15 15 14 14 14 13 13 13 13 14 14
22 21 21 21 21 21 21 21 20 20 19 20 20 20 20 20 20 20 20 19 19 19 19 19 18 18 18 17 17 17 17 17 16 16 16 16 16 16 16 16 16 15 15 15 15 15 15 14 14 14 14 14 14 14 14 14 13 14 14 14 14 14 14 14 14 14 14 14 14 14 14 14 14 14 14 14 14 15 15 15 15 15 15 15 15 15 15 15 15 16 16 16 16 16 15 15 15 14 14 14 14 14 15
23 23 22 22 23 23 23 22 21 21 21 21 21 21 21 21 21 21 21 21 20 20 20 20 20 19 19 18 18 18 18 18 17 17 17 17 16 16 16 16 16 16 16 16 16 16 16 15 15 15 15 15 15 15 14 14 14 14 14 14 14 15 15 15 15 15 14 14 14 15 15 15 14 14 14 14 14 15 15 15 15 15 16 16 16 16 15 15 15 16 16 17 17 17 16 16 15 15 15 14 15 15 15
25 24 24 24 24 24 24 23 23 22 22 22 22 22 21 21 22 22 22 22 22 22 21 21 21 20 20 19 19 19 19 19 19 18 18 18 17 17 17 17 17 17 17 17 17 17 17 16 16 16 16 16 16 16 15 15 14 14 14 14 15 15 15 15 15 15 15 15 15 15 15 15 15 15 15 14 14 15 15 15 16 16 16 16 16 16 16 16 16 16 16 17 17 17 17 17 16 16 15 15 15 16 16
26 26 26 26 26 26 25 25 25 24 23 23 23 22 22 22 22 23 23 23 23 23 22 22 22 21 21 21 20 20 20 20 20 19 19 19 19 18 18 18 18 18 18 18 18 18 18 17 17 17 17 17 17 16 16 16 15 15 15 15 15 15 15 16 16 16 16 16 16 16 16 16 16 16 15 15 15 15 15 15 16 16 16 16 17 17 17 16 16 16 17 17 17 17 17 17 17 17 16 16 16 16 16
28 27 27 27 27 27 27 27 26 26 25 24 24 24 23 23 23 23 24 24 24 24 23 23 23 23 22 22 21 21 21 21 21 21 20 20 20 19 19 19 19 19 19 19 19 19 19 18 18 18 18 18 17 17 17 16 16 16 15 15 15 15 16 16 16 16 16 16 16 16 16 16 16 16 16 16 15 15 15 15 16 16 17 17 17 17 17 17 17 16 17 17 18 18 18 18 17 17 17 17 17 17 17
29 29 28 28 28 28 28 28 28 27 26 25 25 25 24 24 24 24 25 25 25 25 25 24 24 24 23 23 23 22 23 22 22 22 22 21 21 20 20 20 20 20 20 20 20 20 20 19 19 19 19 18 18 18 18 17 17 17 16 16 16 16 16 16 16 17 17 17 17 17 17 17 17 17 16 16 16 16 16 16 16 16 17 17 17 18 18 17 17 17 17 18 18 18 18 18 18 18 18 18 18 18 18
30 30 29 29 29 30 30 29 29 28 27 27 26 26 25 25 25 25 26 26 27 26 26 26 25 25 25 24 24 24 24 23 23 23 23 22 22 22 22 21 21 21 21 21 21 21 21 20 20 20 20 19 19 19 19 19 18 18 17 17 16 16 16 16 17 17 17 17 17 17 17 17 17 17 17 17 17 16 16 16 16 16 17 17 18 18 18 18 18 17 18 18 18 19 19 19 19 19 19 19 19 19 19
31 31 31 31 31 31 31 30 30 29 28 28 28 27 27 27 27 27 27 28 28 28 27 27 27 26 26 26 25 25 25 24 24 24 24 24 23 23 23 22 22 22 22 22 22 22 21 21 21 21 20 20 20 20 20 20 19 19 18 18 17 17 16 16 17 17 17 17 17 17 17 17 17 17 17 17 17 17 17 16 16 17 17 18 18 18 18 18 18 18 18 18 19 19 19 19 19 19 19 19 19 20 19
32 32 32 32 32 32 32 31 31 30 29 29 29 29 29 28 28 28 29 29 29 29 28 28 28 28 28 27 27 26 26 25 25 25 25 24 24 24 24 24 23 23 23 23 22 22 22 22 22 22 21 21 21 21 21 21 20 20 19 19 18 18 17 17 17 17 17 18 18 18 18 17 17 17 17 17 17 17 17 17 17 17 17 18 18 18 18 18 18 18 18 19 19 20 20 20 20 20 20 20 20 20 20
33 34 34 34 34 34 34 33 32 31 30 30 31 31 30 30 30 30 30 30 30 30 29 30 30 29 29 29 28 28 27 27 27 27 26 25 25 25 25 25 24 24 24 24 23 23 23 23 23 22 22 22 22 22 22 22 22 21 21 20 19 19 18 17 17 17 18 18 18 18 18 18 17 17 17 17 17 17 17 17 17 17 18 18 18 18 19 19 19 19 19 19 19 20 20 20 20 20 20 20 20 20 20
35 35 35 36 36 35 35 34 33 32 32 32 32 32 32 32 32 32 32 32 32 31 31 31 31 31 31 31 30 29 29 28 28 28 27 27 27 27 26 26 25 25 25 25 25 25 24 24 24 24 23 23 23 23 23 23 23 22 22 21 21 20 19 18 18 18 18 18 18 18 18 17 17 17 17 17 17 17 17 17 17 17 18 18 18 19 19 19 19 19 19 19 19 19 19 20 20 20 20 20 20 20 20
36 37 37 37 37 37 36 35 34 34 33 34 34 34 34 34 34 34 34 34 33 33 32 32 32 32 33 32 31 31 30 30 30 29 29 28 28 27 27 27 27 27 27 26 26 26 25 25 25 25 24 24 24 24 24 24 24 23 23 22 22 21 20 20 19 19 18 18 18 18 18 17 17 17 17 17 17 17 17 17 18 18 18 18 18 18 19 19 19 19 18 18 18 19 19 19 19 20 20 20 20 20 20
38 38 39 39 39 38 37 37 36 35 35 35 36 36 36 36 36 36 36 35 35 34 34 33 33 34 34 34 33 32 32 32 31 31 30 30 29 28 28 28 28 28 28 28 28 27 27 26 26 26 25 25 25 25 25 25 24 24 24 23 23 22 22 21 20 20 19 19 18 18 18 17 17 17 17 17 17 17 17 18 18 18 18 18 18 18 18 19 19 18 18 18 17 17 18 18 19 19 20 20 20 20 20
40 40 40 40 40 40 39 39 38 37 37 37 37 38 38 38 38 37 37 37 36 36 36 35 35 35 35 35 35 34 34 33 33 32 32 31 30 30 29 30 30 30 30 29 29 29 28 28 27 27 26 26 27 27 26 26 25 25 25 24 24 23 23 22 22 21 20 20 19 18 18 18 17 17 17 17 17 17 18 18 18 18 18 18 18 18 18 18 18 17 17 16 16 16 17 17 18 18 19 19 20 20 20
41 41 41 42 41 41 41 40 40 40 39 39 39 40 40 40 40 39 39 39 38 38 38 38 37 37 36 36 36 36 35 35 34 34 33 32 32 31 31 31 31 31 31 31 31 30 29 29 28 28 28 28 28 28 27 27 26 26 25 25 25 24 24 23 23 22 21 21 20 19 18 18 18 17 17 17 18 18 18 18 18 18 18 18 18 18 18 18 17 17 16 15 15 15 15 16 17 18 19 19 20 20 20
43 43 43 43 43 43 42 42 42 42 42 42 42 42 42 42 42 41 41 41 40 40 40 40 39 39 38 38 38 38 37 37 36 35 34 34 33 33 33 33 33 33 33 33 32 31 31 30 29 29 29 29 29 29 28 28 27 27 26 26 26 26 25 24 24 23 22 22 21 20 19 19 18 18 18 18 18 18 18 18 18 18 18 18 18 18 18 18 17 16 15 15 14 15 15 16 16 17 18 19 19 20 20
44 44 44 44 44 44 44 44 43 43 43 44 44 44 44 44 44 44 43 43 42 42 42 42 41 41 40 40 40 40 39 38 37 36 36 35 35 35 35 35 35 34 34 34 33 33 32 31 31 31 31 31 30 30 29 29 28 28 28 28 27 27 26 25 25 24 23 22 22 21 20 19 19 18 18 18 18 18 18 18 18 18 19 19 19 19 18 18 17 16 15 14 14 14 15 15 15 16 17 18 19 19 20
46 46 46 46 46 45 45 45 45 45 45 45 45 46 46 46 46 46 46 45 45 44 44 43 43 43 42 42 41 41 41 40 39 38 37 37 37 37 37 37 36 36 36 36 35 34 34 33 33 33 32 32 32 31 31 30 29 29 29 29 29 28 27 27 26 25 24 23 22 21 20 20 19 19 19 19 19 18 18 18 19 19 19 19 19 19 19 18 17 16 15 14 14 14 14 14 15 15 16 18 19 19 20
47 47 47 47 47 47 47 46 46 46 46 47 47 48 48 48 48 48 48 48 47 47 46 45 45 44 44 44 44 43 42 42 40 40 39 39 39 39 39 38 38 38 37 37 37 36 35 35 35 34 34 34 33 33 32 31 31 31 31 30 30 29 29 28 27 26 24 24 23 22 21 20 20 19 19 19 19 19 19 19 19 19 19 19 19 19 19 18 17 16 15 15 15 14 14 14 15 15 16 17 18 19 19
49 49 49 49 48 48 48 48 48 48 48 48 49 49 50 50 50 50 49 49 49 49 48 47 47 46 46 46 46 46 45 44 43 41 40 40 40 41 41 40 40 40 39 39 38 38 37 37 37 36 36 35 35 34 33 32 32 32 32 32 31 30 30 28 27 26 25 24 23 22 21 21 20 20 20 20 20 20 20 20 19 19 19 19 19 19 18 18 17 16 15 15 15 15 14 14 14 14 15 16 17 18 19
50 50 50 50 50 50 50 49 49 49 49 49 50 50 50 50 50 50 50 50 50 49 49 49 48 48 48 48 48 48 47 46 44 43 42 41 42 43 43 42 42 42 42 41 40 40 39 39 38 38 38 37 36 36 35 34 34 33 33 33 32 31 30 29 27 26 25 24 23 23 22 21 20 20 20 20 20 20 20 20 20 20 20 20 20 19 18 18 17 16 16 15 15 15 14 14 14 14 14 16 17 18 19
51 51 51 51 51 51 51 51 50 50 50 51 51 51 50 50 51 51 51 51 51 50 50 50 50 50 50 50 50 50 49 48 46 44 43 43 44 44 44 44 44 44 43 43 42 41 41 40 40 40 39 39 38 37 36 35 35 34 34 33 33 32 30 29 27 26 25 25 24 23 22 21 20 20 20 20 20 20 20 21 21 20 20 20 20 19 19 18 17 17 16 16 16 15 15 15 14 15 15 16 18 19 20
52 52 52 52 52 52 52 51 51 51 51 51 51 51 51 51 51 51 52 52 52 52 52 51 52 52 52 51 51 51 50 49 47 45 44 46 46 45 44 43 43 43 44 44 43 43 42 42 42 42 41 40 39 38 37 36 36 35 35 34 33 31 30 28 26 26 25 25 25 24 22 21 20 20 20 20 20 20 20 21 21 21 21 20 20 20 19 18 18 17 17 17 17 16 16 16 16 16 16 17 18 19 20
52 52 52 52 52 52 52 52 52 52 52 51 52 52 52 52 52 52 53 53 53 53 53 53 53 53 53 53 52 52 51 50 49 48 46 47 47 45 43 40 38 37 38 38 39 41 42 42 43 43 42 40 39 38 37 37 36 35 35 34 32 31 29 27 26 26 26 26 25 24 23 21 20 20 20 20 20 20 20 21 21 21 21 21 20 20 20 19 18 18 18 18 18 17 17 16 16 17 17 17 18 19 20
52 52 52 52 52 52 52 52 52 52 52 52 52 53 53 53 53 53 53 53 54 54 54 54 53 53 53 53 53 52 52 51 51 50 49 47 44 42 40 37 36 35 34 29 30 35 40 40 41 41 40 38 36 35 35 34 34 34 33 32 31 30 28 26 26 26 27 27 26 24 23 22 21 20 20 20 20 20 20 20 21 21 21 21 21 20 20 19 19 19 19 19 18 18 17 17 17 17 17 17 18 18 19
52 52 52 52 52 52 52 52 52 52 52 52 53 53 53 54 54 54 54 54 54 55 55 55 54 53 53 54 53 53 53 52 51 50 49 48 45 41 37 37 39 39 37 30 25 28 35 36 34 33 35 33 32 31 32 32 32 32 32 31 30 29 27 26 27 27 27 27 26 24 23 22 21 20 20 20 20 20 20 20 20 21 21 21 21 21 20 20 20 19 19 19 19 18 18 17 17 17 18 18 18 19 20
51 51 51 51 51 52 52 52 52 52 52 52 53 53 54 54 55 55 55 55 55 55 55 55 55 54 53 53 54 54 53 53 52 50 49 50 48 46 43 39 37 34 32 30 28 28 33 32 30 30 34 33 31 30 32 32 32 31 31 30 29 28 27 27 28 28 28 27 26 24 23 22 21 21 20 20 20 20 20 20 20 21 21 21 21 21 21 20 20 20 20 20 20 19 19 18 18 18 18 19 19 19 19
49 50 50 50 51 51 51 51 52 52 52 52 53 53 54 54 54 54 54 54 54 55 55 55 55 55 54 54 53 53 53 52 52 52 50 50 50 50 48 44 37 29 24 26 30 34 34 31 28 29 33 33 31 30 32 31 30 30 29 29 28 28 27 27 28 28 28 27 25 24 23 22 21 21 20 20 20 20 20 20 20 21 21 21 22 22 21 21 21 21 21 21 21 20 19 19 19 18 18 19 19 19 20
48 48 49 49 49 50 50 50 51 51 52 52 52 53 53 54 54 54 54 55 55 55 55 55 55 55 55 54 53 52 52 52 52 53 51 50 50 50 49 49 47 42 35 29 29 30 29 27 24 23 27 29 28 27 28 28 28 28 28 28 27 27 27 27 28 28 28 27 26 24 23 22 22 21 20 19 19 19 19 20 20 21 21 22 22 22 22 22 22 22 22 22 22 21 20 20 20 19 19 19 20 20 21
46 47 47 48 48 49 49 50 50 51 51 51 52 52 53 53 54 55 55 55 55 55 55 55 55 56 55 54 53 52 52 52 52 51 51 50 50 50 51 51 51 51 49 46 41 35 31 27 27 27 25 25 26 27 26 25 27 28 28 28 27 27 27 27 28 28 28 27 26 25 24 23 22 21 20 19 19 19 19 20 20 21 22 22 22 22 22 22 22 22 22 22 22 22 22 21 21 20 20 20 20 21 22
46 46 46 47 47 48 48 49 49 50 51 51 51 52 53 54 54 55 55 55 55 54 54 55 55 55 55 54 53 52 53 53 53 51 50 49 50 52 51 51 50 50 49 50 49 46 41 33 32 33 31 26 26 28 28 26 27 28 28 29 28 28 28 28 29 29 28 28 26 25 24 23 22 21 20 19 19 18 19 19 20 21 22 22 23 23 23 23 23 23 23 23 23 23 23 23 22 22 22 22 22 23 23
45 45 46 46 47 47 47 48 49 49 50 50 51 52 53 54 54 54 54 54 54 54 54 55 55 55 54 54 54 53 54 54 53 52 50 48 50 51 51 49 49 50 50 50 49 48 48 45 41 36 32 30 29 28 27 28 28 27 27 28 28 28 28 29 30 30 29 28 27 26 25 24 23 21 20 19 18 18 19 19 20 21 22 23 23 23 23 23 23 23 23 23 23 24 24 24 24 23 23 23 23 24 24
45 45 45 46 46 46 47 47 48 49 49 50 51 52 52 53 53 53 54 54 54 54 54 54 54 54 54 54 55 55 54 54 53 52 52 50 50 49 49 48 48 50 50 49 49 49 48 49 47 43 38 36 34 30 27 28 28 27 28 28 28 28 29 30 31 31 30 29 28 27 26 24 23 21 20 19 18 18 19 20 21 22 23 23 23 23 23 23 23 23 23 23 23 23 23 23 24 23 23 23 23 24 24
Wind_Direction
191 181 166 149 136 128 124 124 123 122 119 117 113 110 106 102 95 90 84 79 77 76 75 74 73 73 73 74 74 74 73 72 70 67 64 61 56 52 47 41 35 30 26 24 23 22 22 21 18 15 12 10 8 6 3 1 1 360 357 355 351 355 20 37 35 28 22 19 15 13 11 14 13 12 13 17 22 23 23 23 25 27 28 28 28 27 27 26 26 27 27 28 27 27 26 26 25 24 23 22 22 22 22
202 199 192 181 174 164 153 143 137 134 129 124 121 116 111 107 101 96 90 85 81 78 76 74 73 72 72 72 73 72 71 71 69 68 66 63 59 55 49 44 39 33 27 25 22 22 20 19 17 13 10 8 5 3 0 357 356 354 352 348 345 350 11 30 32 27 19 13 11 10 11 13 14 13 10 11 14 17 17 18 20 23 25 25 25 24 24 25 25 25 26 26 26 26 26 25 25 24 23 22 21 21 20
212 211 210 206 203 198 193 179 163 151 141 135 128 122 115 111 106 101 95 90 84 80 77 75 73 71 70 69 69 68 68 68 68 67 66 63 60 57 53 48 42 37 31 26 23 21 19 18 16 12 9 5 2 360 356 354 351 348 347 344 341 346 1 19 26 25 17 10 5 4 7 13 16 16 12 11 10 11 12 12 14 18 21 22 22 22 22 22 23 24 24 25 25 25 25 24 25 23 22 21 20 20 20
223 224 223 220 219 217 211 203 190 171 156 142 133 125 118 112 108 103 97 91 85 81 76 73 71 69 67 66 65 64 64 63 62 62 62 61 59 56 53 49 45 40 34 29 25 22 19 17 15 12 8 3 359 356 353 349 346 344 342 339 338 340 352 4 16 21 17 9 1 358 1 9 15 18 16 13 11 9 7 7 9 13 16 18 18 18 19 20 20 21 23 23 24 24 24 24 24 23 22 20 20 20 19
232 233 232 231 228 226 223 217 207 192 174 156 139 125 118 111 107 103 97 91 84 78 73 69 67 64 62 60 59 58 57 56 55 54 55 55 54 52 49 47 44 40 35 31 27 23 19 17 15 12 6 0 356 353 350 345 342 339 338 336 334 335 341 348 360 11 13 9 1 355 354 1 9 14 16 14 10 7 5 5 6 10 12 14 15 15 15 16 17 18 20 21 22 23 23 23 23 23 22 21 20 20 19
238 238 238 236 235 233 230 226 220 209 197 173 150 131 117 110 104 99 94 86 77 69 63 60 57 55 54 51 49 48 47 46 44 43 43 43 44 43 42 41 39 36 33 29 26 23 20 17 14 11 5 358 354 350 346 343 339 336 333 332 330 329 331 337 347 356 1 3 360 354 350 354 1 7 12 12 9 6 4 3 4 5 7 10 11 12 12 12 13 14 16 18 19 20 21 21 22 22 22 21 21 20 19
243 243 242 241 239 237 235 233 229 221 213 194 169 143 120 108 101 95 86 75 63 56 49 46 44 42 40 38 36 35 33 32 30 29 28 28 30 30 30 30 30 29 27 24 22 20 18 15 12 8 3 355 351 348 345 340 336 333 332 330 328 326 325 330 340 348 351 356 358 356 350 350 354 0 6 9 7 3 1 1 2 1 2 5 8 9 10 10 9 10 11 14 16 17 19 19 20 20 21 21 21 20 19
246 246 245 245 243 242 240 239 235 230 223 212 193 162 130 109 94 85 73 60 47 37 31 30 28 27 25 24 23 21 19 17 16 15 15 14 15 16 16 16 18 19 18 17 15 14 13 11 8 6 1 354 349 345 343 339 336 333 331 330 328 326 324 328 335 343 349 354 357 358 355 353 353 357 0 5 7 4 0 360 360 1 2 4 9 11 10 8 7 6 7 11 13 15 16 17 17 18 18 19 19 19 18
247 249 249 248 247 246 244 243 241 237 231 224 214 194 147 99 78 63 51 38 26 17 14 13 14 13 12 11 11 9 8 6 5 3 3 3 3 3 5 5 5 6 8 8 7 7 7 6 4 2 358 352 347 344 342 339 337 334 332 331 329 328 327 328 333 341 349 353 356 358 358 356 355 356 357 2 6 6 2 0 359 0 5 10 14 17 18 15 11 9 8 9 11 14 15 15 15 15 15 15 16 16 15
248 250 251 251 250 249 247 246 243 241 237 234 228 227 219 36 32 27 22 15 6 1 360 0 0 0 0 0 0 360 358 357 356 354 353 353 353 354 355 356 356 356 358 359 360 360 360 360 359 358 355 350 345 342 341 339 337 335 333 332 331 330 330 330 333 338 345 350 353 356 357 356 355 354 355 359 4 6 4 2 0 0 3 5 7 10 14 19 20 18 13 10 11 12 15 14 14 14 13 13 12 12 11
250 250 252 252 251 251 249 247 245 243 241 239 237 242 261 312 347 353 355 351 347 346 347 348 349 349 349 349 350 349 348 346 346 346 345 345 345 346 348 349 349 349 349 351 352 353 353 353 353 353 351 346 342 340 339 338 336 335 333 332 331 330 331 332 334 336 338 343 347 350 352 353 352 351 353 354 357 1 2 2 1 0 2 4 4 5 7 11 13 15 12 10 9 11 14 14 13 12 11 10 9 9 7
251 252 253 253 253 251 250 248 246 243 242 240 240 246 260 291 317 328 331 331 332 334 335 336 336 337 337 338 338 338 337 337 337 336 336 337 337 339 341 342 342 342 342 343 345 346 347 348 348 348 346 343 339 337 337 336 335 333 332 332 331 331 332 333 334 334 334 335 337 342 346 349 349 348 348 350 351 352 356 360 360 359 359 1 2 3 5 5 6 6 6 6 6 7 10 11 11 10 9 8 6 6 4
253 254 254 254 254 253 251 249 247 245 243 242 244 248 261 278 296 306 310 315 317 321 322 323 324 325 325 326 327 328 328 328 327 327 327 329 330 332 334 336 335 335 337 338 339 340 341 342 342 342 341 339 337 335 335 334 333 333 331 331 331 331 331 333 333 332 331 330 330 333 337 343 345 344 343 345 346 346 347 354 357 357 357 357 359 1 3 2 1 1 1 1 1 2 4 6 6 6 5 4 2 1 0
254 255 256 256 256 254 252 251 249 248 247 246 248 252 262 273 284 291 297 301 305 308 310 311 312 313 314 315 316 318 318 319 319 320 320 322 323 325 327 328 329 330 331 333 333 334 336 336 337 338 337 336 333 333 333 333 332 331 330 329 330 330 331 331 331 330 329 328 326 327 329 334 338 340 340 340 341 341 339 345 352 354 353 353 354 356 359 359 357 356 356 356 357 359 359 1 2 2 2 1 359 357 355
255 256 257 257 257 256 254 253 252 251 252 252 254 258 264 270 277 283 288 292 295 297 299 299 300 301 303 305 307 308 309 311 312 313 314 315 317 319 321 323 323 324 325 327 328 329 331 332 333 333 333 333 332 331 332 331 331 330 329 329 329 329 329 329 328 328 328 327 325 324 324 326 331 335 337 337 338 337 334 337 344 350 349 349 350 353 355 355 352 351 351 352 353 355 356 357 358 359 0 359 357 354 352
255 257 258 258 258 257 256 255 254 255 256 258 259 262 266 270 275 279 283 285 287 289 289 290 290 292 293 295 297 298 300 302 304 306 307 309 311 313 315 316 317 319 320 322 323 325 326 328 329 329 330 330 329 329 329 329 329 328 327 327 327 327 326 326 326 326 326 326 324 323 322 322 325 329 333 335 336 335 332 332 337 343 344 344 346 349 351 350 348 346 345 346 348 351 353 354 354 356 358 358 356 352 350
254 256 257 258 258 258 258 257 257 258 259 261 264 267 269 272 274 277 279 281 282 283 284 284 284 284 285 286 288 289 291 294 296 299 301 303 305 307 309 311 312 314 315 317 319 321 322 323 324 325 326 326 327 327 327 327 326 325 325 325 325 324 324 324 324 324 324 324 325 323 322 320 322 325 330 333 335 335 332 330 332 337 338 339 343 345 347 346 344 341 340 341 344 347 349 350 350 351 353 354 353 351 348
252 255 256 257 257 258 259 259 259 260 262 264 266 269 271 273 274 276 277 278 279 280 280 281 281 281 281 281 281 283 284 286 289 292 294 296 298 300 302 304 306 308 310 312 314 316 318 319 320 321 322 323 324 324 324 324 323 323 323 323 322 322 322 322 323 323 324 324 324 324 323 322 321 322 327 331 334 335 332 329 330 332 333 335 338 341 342 342 340 337 335 337 340 344 346 347 346 346 347 349 350 348 346
251 254 256 256 257 258 259 260 260 261 263 265 267 269 271 273 273 274 274 275 276 277 278 279 279 279 279 279 279 279 280 281 283 285 287 290 292 295 297 299 301 302 305 307 309 311 313 314 316 317 319 320 321 321 322 322 321 320 320 320 320 320 320 321 322 323 323 323 324 324 324 323 322 322 324 327 331 333 332 330 329 328 329 330 332 335 335 336 335 333 331 332 335 340 343 343 342 342 343 345 346 346 343
250 253 255 256 257 258 258 259 260 261 263 265 267 268 270 270 271 272 272 273 273 274 275 276 277 277 278 278 278 278 279 279 280 280 282 284 287 289 291 293 296 298 300 302 304 306 308 310 312 314 315 317 317 318 319 319 319 318 318 318 318 318 319 320 321 321 322 323 323 323 323 323 323 322 322 324 326 329 330 329 328 327 327 326 326 327 329 330 330 327 326 327 330 335 338 338 338 338 338 341 343 342 340
249 252 254 255 256 257 257 258 259 261 262 264 265 266 267 268 269 269 270 270 271 271 272 273 275 276 276 277 277 277 278 279 279 279 279 281 283 286 288 290 292 294 295 297 299 301 303 305 307 309 312 313 314 315 316 317 317 317 317 317 317 317 317 318 319 319 320 321 321 321 321 322 322 322 321 321 322 324 326 327 326 325 325 324 323 322 322 323 322 322 321 322 324 328 332 333 334 334 335 337 339 338 335
247 249 251 254 255 257 257 258 259 260 261 263 264 265 265 266 267 267 268 268 268 269 270 271 272 273 274 275 276 276 277 278 279 278 278 279 281 283 285 287 289 290 292 294 296 297 300 302 304 306 308 310 311 313 314 314 315 315 316 316 316 316 316 316 317 318 319 319 319 319 319 319 320 320 320 319 319 319 321 322 323 323 323 322 321 319 318 318 317 317 317 317 319 322 326 329 330 330 331 333 334 334 331
246 248 250 252 254 256 257 258 258 259 260 262 263 264 264 265 265 266 266 267 267 267 268 269 270 272 272 273 274 274 275 276 277 277 278 279 279 281 283 285 287 288 290 292 294 295 297 299 301 303 305 307 309 311 312 313 314 314 315 315 315 316 315 315 316 316 316 317 318 318 318 317 317 317 318 317 317 316 317 318 319 319 319 319 319 318 317 316 315 315 314 314 315 318 321 324 326 327 328 329 330 329 327
247 248 249 251 253 255 257 258 258 258 259 261 262 263 263 264 264 265 266 266 266 267 268 269 270 271 271 272 272 272 273 273 274 276 276 277 279 280 281 283 285 286 288 290 292 294 296 298 300 301 304 306 308 309 311 312 313 313 314 314 314 314 314 314 314 314 315 316 316 317 317 316 316 316 316 316 315 314 314 314 315 316 316 317 317 316 316 315 315 314 314 313 314 316 318 320 323 324 324 325 325 325 323
249 250 250 251 253 254 256 258 258 258 259 260 261 263 263 263 264 264 264 265 266 267 268 268 269 270 270 270 270 271 271 272 273 274 276 277 278 279 281 282 284 285 287 289 291 292 294 296 298 300 302 304 306 308 309 311 311 312 312 312 313 312 312 312 312 313 313 314 315 316 315 315 314 314 314 314 314 313 312 310 310 311 312 313 314 314 314 314 314 313 312 312 313 314 315 317 319 320 320 321 321 320 320
253 253 253 253 254 254 256 257 258 259 259 260 261 263 263 263 263 263 264 265 266 267 267 268 268 268 268 268 269 269 270 271 273 274 275 277 278 279 281 282 283 284 286 288 289 291 293 295 297 299 301 302 304 306 307 309 309 309 310 310 310 310 310 310 310 311 312 313 313 314 314 313 313 312 312 313 313 312 311 309 308 308 308 309 310 311 312 312 312 312 310 310 310 311 312 313 315 316 316 317 316 317 317
255 255 256 255 255 255 256 257 258 259 259 260 261 262 263 263 264 264 264 264 265 266 267 267 267 267 267 268 268 269 271 272 273 275 276 277 278 280 281 282 283 285 286 288 289 290 292 293 295 297 298 300 301 303 304 305 306 306 307 308 308 308 308 309 309 309 310 311 311 312 312 312 312 311 311 311 311 311 310 309 307 305 305 304 305 307 309 310 311 310 309 308 308 308 309 310 311 312 312 313 313 313 314
256 256 257 257 257 257 257 257 258 258 259 260 261 262 263 264 265 265 265 265 265 265 266 266 267 267 267 268 269 270 272 273 274 275 276 277 278 279 281 282 284 285 287 288 289 290 291 292 293 294 295 297 298 299 300 301 302 303 304 305 306 307 307 308 308 308 309 309 309 310 310 310 310 310 309 309 309 309 309 309 308 306 304 302 302 304 306 307 308 308 308 307 307 306 306 307 308 309 309 310 310 311 311
256 257 257 257 257 258 258 258 258 258 259 259 260 261 263 264 266 266 266 266 266 266 266 266 267 268 268 269 270 271 273 274 275 275 276 277 278 280 281 282 284 286 287 288 289 289 290 290 291 292 292 293 294 295 296 298 299 301 302 303 304 305 306 307 307 308 308 308 308 308 308 309 308 308 308 307 307 307 307 307 307 306 304 303 302 302 303 304 305 306 306 306 306 305 305 305 306 306 307 307 307 308 308
257 257 257 257 258 258 259 259 259 258 258 258 259 260 261 263 265 266 267 267 267 266 267 267 268 268 269 270 271 272 273 274 274 275 276 277 278 279 281 282 284 285 286 287 288 288 288 289 289 290 290 291 292 292 294 295 297 299 300 302 303 304 305 306 306 307 307 307 307 307 307 307 306 306 306 305 305 305 305 305 305 305 305 304 303 302 301 301 303 304 304 304 304 304 303 303 304 304 304 304 304 305 306
257 257 257 257 258 258 259 259 259 259 258 258 259 260 261 262 264 265 266 267 267 267 267 268 268 269 270 271 271 272 273 273 274 275 276 277 278 279 280 281 283 284 285 286 286 287 287 288 288 289 289 290 290 291 292 294 295 297 298 299 301 302 303 304 305 306 306 306 306 305 305 305 305 305 304 304 304 303 303 304 303 304 303 303 303 302 301 300 301 302 302 303 302 302 302 302 302 302 302 302 302 302 302
256 256 257 257 258 259 260 260 260 259 259 259 260 261 261 261 263 264 266 266 267 268 268 269 269 269 270 270 271 271 272 273 274 275 276 277 278 279 280 281 281 282 283 284 285 286 286 287 287 288 288 289 290 290 291 292 293 295 296 297 298 300 301 303 304 304 305 305 304 304 304 304 303 303 303 302 302 302 302 302 302 302 302 302 302 302 301 300 300 300 301 301 301 301 300 300 300 300 300 300 300 300 300
254 255 256 257 259 260 261 261 261 261 261 261 262 262 262 262 262 264 265 266 267 268 268 268 268 269 269 270 270 270 271 272 273 275 276 277 278 279 279 280 281 281 282 283 283 284 285 286 286 287 287 288 289 289 290 291 291 292 293 294 296 297 299 300 301 302 303 303 302 302 302 302 301 301 301 301 301 301 300 300 300 300 300 300 300 300 300 299 298 298 298 299 299 299 299 299 299 299 299 299 298 298 298
253 254 256 258 259 261 261 261 262 263 263 263 263 263 263 263 263 264 265 266 266 267 267 267 268 268 269 269 269 269 270 271 273 274 275 276 277 278 278 279 279 280 280 281 282 283 283 284 285 285 286 287 288 288 289 289 290 290 291 292 293 294 296 297 299 300 300 300 300 300 300 300 299 299 299 299 299 299 299 299 299 298 299 299 299 298 298 297 296 296 297 297 297 298 298 298 298 297 297 297 297 297 297
254 255 257 258 259 261 261 263 264 264 264 264 264 264 264 264 263 263 264 265 265 266 267 267 268 268 269 269 269 269 270 271 272 273 273 274 276 276 276 277 278 278 279 280 280 281 282 282 283 284 285 286 286 287 287 288 288 289 289 290 290 291 292 294 296 297 297 297 297 297 297 297 297 296 296 297 297 297 298 298 297 297 297 297 297 297 296 296 295 294 295 296 296 296 297 296 296 296 296 296 296 296 296
256 257 258 259 259 260 262 263 264 264 265 265 265 265 265 264 263 263 263 264 265 266 267 268 269 269 269 269 270 270 271 271 272 272 272 273 274 274 275 276 276 277 278 278 279 280 280 281 282 283 283 284 285 285 286 286 287 287 287 287 288 288 289 291 292 293 294 294 294 294 294 294 294 293 293 294 295 295 296 296 296 296 295 296 296 296 296 295 294 294 294 295 296 296 296 295 295 294 294 294 295 295 296
257 258 259 259 260 261 262 263 264 264 265 266 266 265 265 264 263 263 263 264 265 266 268 269 269 270 270 270 270 271 271 271 271 271 272 273 273 273 274 275 275 276 276 277 278 278 279 280 281 281 282 283 283 284 284 284 285 285 285 285 285 286 286 288 289 290 290 290 290 291 291 291 291 291 291 291 292 292 293 294 294 294 294 295 296 296 296 296 295 295 294 295 296 296 296 295 294 294 293 293 293 294 295
258 259 260 261 261 262 263 264 264 265 265 266 266 265 265 265 265 264 264 265 266 267 268 269 269 270 271 271 271 271 272 271 271 272 272 273 273 273 274 275 275 275 276 276 277 277 278 278 279 280 280 281 282 282 282 282 283 283 284 284 284 284 284 285 286 287 287 286 287 287 288 288 288 288 288 288 289 290 291 292 292 293 294 295 296 297 297 297 296 295 295 295 295 296 296 295 295 294 293 292 293 294 295
259 260 261 261 262 262 263 265 265 265 265 265 266 266 266 266 265 265 265 265 266 267 267 268 269 270 271 271 272 272 272 272 272 273 273 273 273 274 275 275 275 275 276 276 276 276 277 277 278 279 279 279 280 280 280 280 281 282 282 282 282 282 283 284 284 285 284 283 283 283 285 286 286 287 286 287 287 288 288 290 290 292 293 295 296 297 298 297 297 296 295 295 295 295 296 296 295 294 293 293 293 293 294
260 260 261 262 262 263 264 265 265 265 265 265 266 266 266 266 265 265 265 266 266 267 267 268 268 269 270 271 272 272 272 272 273 273 274 274 274 275 276 276 275 275 275 275 275 275 276 276 277 277 278 278 278 278 278 278 279 280 280 281 281 281 282 283 283 283 282 280 279 280 282 284 285 285 285 285 286 286 287 288 290 291 292 294 295 296 296 297 296 295 295 295 295 295 295 295 295 294 293 293 293 293 293
261 261 262 262 263 264 264 264 265 265 265 265 266 266 266 266 266 266 266 267 267 268 268 268 268 268 270 271 272 272 273 273 273 273 274 274 275 276 276 275 275 275 274 274 274 274 275 275 276 276 276 276 276 276 276 277 277 278 279 279 280 280 281 281 282 282 281 278 276 277 280 283 284 284 284 285 285 286 287 289 290 291 292 293 294 295 295 295 295 295 294 294 294 294 293 293 293 293 293 293 291 291 291
262 262 262 263 263 264 264 264 265 265 265 265 265 266 266 266 266 267 267 267 268 268 268 268 267 268 269 271 271 272 272 272 272 273 274 274 275 276 275 275 274 274 274 274 274 274 274 274 275 275 275 274 274 274 275 276 276 277 277 278 278 279 279 280 281 281 279 276 274 275 278 281 283 284 284 285 286 287 288 289 290 291 292 293 293 294 295 295 294 294 294 294 293 292 292 292 292 292 292 292 291 290 289
263 263 263 264 264 264 264 265 265 265 265 265 265 265 266 266 267 267 267 267 267 267 268 268 268 268 268 269 270 270 271 271 272 273 273 274 275 275 274 274 273 274 274 273 273 273 274 274 274 274 273 273 273 273 274 274 275 275 276 276 276 277 277 279 280 280 278 274 272 273 276 280 282 283 284 285 287 288 290 291 292 292 292 293 294 294 295 295 295 296 295 295 293 293 292 292 292 292 291 290 290 289 289
265 265 265 265 265 265 265 264 264 264 264 265 265 265 266 266 267 267 266 266 266 266 267 268 268 268 268 268 269 269 270 271 272 273 273 273 273 273 273 272 272 272 273 273 273 273 273 273 273 272 272 272 272 273 273 273 274 274 274 274 275 275 276 277 278 278 275 272 270 271 275 279 281 283 284 285 287 290 291 292 292 292 293 293 294 294 295 295 296 298 298 297 296 295 294 293 292 291 290 290 290 289 289
265 265 265 265 265 265 265 265 265 265 264 265 265 265 266 266 266 266 266 266 266 266 266 267 268 268 268 268 269 270 270 271 272 272 272 272 272 271 271 271 271 271 272 272 272 273 272 272 272 271 271 271 271 272 272 272 273 273 273 273 273 273 274 275 276 275 273 270 268 270 275 279 282 283 284 286 288 290 292 292 292 292 292 293 293 293 294 295 297 299 300 300 299 297 296 295 293 291 290 290 290 290 290
266 266 266 266 266 266 266 266 266 265 265 265 265 265 266 266 266 265 266 266 266 266 266 267 268 269 269 269 269 269 270 270 270 270 270 270 270 270 270 270 270 270 271 271 272 272 272 271 270 270 270 270 270 270 271 271 271 271 271 271 271 272 272 273 273 272 270 267 266 269 274 279 281 283 284 286 288 290 291 291 291 291 292 292 292 292 293 295 297 299 301 302 301 300 299 297 295 293 291 291 290 290 289
267 267 267 267 267 268 268 268 267 267 266 266 266 265 266 266 266 266 266 267 267 268 268 268 268 269 269 269 269 269 268 268 268 268 268 269 269 269 269 269 269 270 270 271 271 271 271 271 270 270 270 269 269 269 269 270 270 270 269 270 270 270 271 271 271 270 267 263 263 267 272 277 280 282 284 286 288 289 290 291 291 291 291 291 292 292 293 294 296 298 300 301 302 303 302 300 296 293 292 291 290 289 289
267 267 268 268 268 269 269 269 268 268 267 267 266 267 267 267 268 268 268 269 269 270 270 270 269 269 269 269 269 268 267 267 267 267 267 268 268 268 267 267 268 269 269 270 270 271 271 270 270 270 269 269 268 268 269 268 268 268 268 269 269 269 269 270 269 267 263 260 261 265 271 275 278 280 283 285 287 289 290 290 290 291 291 291 292 292 293 294 296 298 300 301 303 304 303 301 298 294 293 292 291 291 291
267 268 268 269 269 269 269 269 269 268 268 268 268 268 269 270 270 270 271 271 270 270 270 270 269 268 268 268 268 268 267 267 266 266 265 264 265 266 267 267 267 268 269 269 270 270 270 270 270 270 269 268 268 268 268 268 267 267 268 268 268 268 268 268 267 263 259 257 259 263 269 274 276 279 282 284 287 289 290 290 290 290 291 291 291 292 293 294 296 298 300 302 303 303 303 301 300 299 298 296 295 295 293
268 268 269 269 269 270 270 270 270 270 270 270 270 271 271 271 271 271 271 270 270 269 268 268 268 267 266 266 267 267 267 266 266 264 263 261 261 262 264 266 268 269 269 269 269 269 269 269 269 269 268 268 268 267 267 267 267 267 267 266 266 267 267 266 264 259 255 254 258 263 269 272 275 278 281 284 286 288 289 290 290 290 290 290 291 292 293 295 296 298 300 301 302 303 304 304 304 304 303 300 297 295 294
268 269 269 270 271 271 271 271 271 271 271 272 272 272 272 271 271 270 270 269 269 268 267 266 267 267 266 265 266 266 266 266 264 261 258 260 261 261 261 264 267 269 270 270 269 269 269 268 268 268 268 268 268 268 267 267 266 266 266 265 265 265 265 263 259 255 252 253 258 264 269 272 274 277 280 283 285 286 288 288 289 290 290 291 291 292 294 295 297 299 300 302 304 307 308 309 307 306 305 301 297 295 293
269 270 270 271 272 272 273 273 273 273 273 272 272 272 272 271 271 270 270 269 269 269 268 266 266 267 267 266 266 266 265 264 262 260 258 260 263 264 263 262 262 264 266 270 271 271 270 268 268 267 267 268 269 268 267 266 265 264 264 264 264 264 263 259 255 251 250 253 259 264 268 271 273 276 279 282 284 285 286 287 288 289 290 292 293 294 295 297 299 300 302 305 308 310 311 312 309 306 304 301 297 295 293
270 271 271 272 272 273 274 273 273 273 273 272 271 272 272 271 271 271 270 270 269 269 268 267 266 265 265 266 265 264 264 262 261 260 260 260 260 259 258 254 252 254 259 266 272 273 270 269 269 270 270 270 269 268 266 264 263 262 262 262 262 261 259 255 250 248 250 254 259 264 267 269 271 274 278 280 283 284 285 286 288 289 291 293 294 296 297 299 301 303 304 306 309 310 311 311 309 306 303 301 299 297 295
271 272 272 272 273 274 273 273 274 274 273 272 272 272 272 272 271 271 270 270 269 269 268 268 267 264 263 264 264 264 264 263 261 260 259 258 254 250 249 249 251 255 260 262 268 273 271 269 271 273 273 271 268 266 265 262 261 261 260 260 260 258 255 251 247 247 250 255 259 262 264 266 269 272 276 279 282 283 284 286 288 290 292 294 295 297 299 301 302 303 304 306 307 309 309 309 308 305 303 301 299 297 295
272 273 273 274 274 274 274 274 274 274 274 273 272 272 271 271 271 271 271 270 270 270 269 268 267 265 262 262 264 264 264 264 263 261 259 258 255 250 248 249 252 256 258 258 258 260 266 269 271 272 272 270 267 265 264 262 262 261 260 259 258 256 252 248 247 248 251 255 258 260 262 264 267 271 275 278 281 282 284 287 289 291 293 294 296 298 299 301 302 303 304 305 305 306 307 306 305 304 302 299 297 297 296
274 274 275 275 275 275 275 275 275 274 274 273 272 271 271 272 272 272 271 271 270 270 269 268 267 267 265 264 264 264 264 265 264 263 260 258 257 256 254 250 246 245 252 256 257 259 262 264 267 269 270 269 266 264 265 264 262 261 259 258 256 254 251 248 248 250 253 256 257 258 259 262 265 270 274 277 280 282 285 287 289 291 293 295 296 298 299 301 301 302 302 303 304 305 305 305 304 303 302 299 298 297 297
275 275 275 276 276 276 275 275 274 274 274 273 272 272 272 272 272 271 271 270 269 268 268 267 267 268 268 266 264 263 263 263 264 264 261 259 259 258 256 252 248 247 250 252 257 262 265 262 260 263 270 271 267 264 264 263 261 259 258 257 255 254 251 250 250 252 254 255 257 258 259 261 264 268 273 276 278 281 285 287 289 291 293 294 296 297 298 299 299 300 300 301 302 303 303 304 303 303 303 300 298 296 294
276 276 276 277 276 276 275 274 274 274 273 273 273 272 272 271 270 269 269 269 268 268 268 267 267 266 267 266 264 262 261 260 261 262 262 261 260 258 257 256 257 256 252 252 254 257 262 263 259 259 266 272 270 265 260 258 257 257 257 256 255 253 252 251 251 252 254 255 256 257 259 261 264 268 271 274 277 281 284 287 289 291 292 294 295 296 296 297 297 297 298 299 300 301 302 302 303 303 303 302 298 294 291
277 277 277 277 276 276 275 275 274 274 273 273 272 271 271 270 270 270 270 269 269 269 267 266 266 266 266 265 262 260 259 260 260 260 260 260 260 259 257 256 255 253 252 252 251 252 254 257 259 259 261 265 268 266 261 255 253 254 255 256 255 253 252 251 252 253 254 255 257 258 259 261 264 267 270 273 277 281 284 287 289 290 291 292 293 294 294 295 295 295 296 297 297 298 299 300 301 300 299 297 294 290 288
278 278 278 277 277 276 275 275 274 273 273 272 271 270 270 270 271 271 270 269 269 268 266 265 266 266 265 263 261 260 259 260 261 259 256 255 257 259 258 256 254 254 253 251 250 250 249 251 253 256 257 258 261 265 263 258 255 254 254 254 253 252 252 252 253 254 255 256 258 259 260 262 264 266 269 273 277 282 285 287 289 289 290 290 291 292 292 292 292 293 293 293 294 295 295 295 295 294 293 292 289 287 286
279 278 278 277 277 276 275 274 273 273 272 271 271 271 271 271 271 270 269 268 268 267 266 266 265 265 264 263 262 261 261 261 260 259 256 254 256 259 260 258 257 257 256 254 252 250 248 248 249 250 251 253 256 259 261 260 258 256 254 253 252 251 252 253 255 255 256 258 259 260 262 263 265 267 269 273 278 282 285 287 288 288 288 288 289 290 290 290 291 291 291 292 292 292 292 292 291 291 291 291 289 286 285